Location: Peebles
(55.6412°N, 3.1714°W)
Time: 18:32:37
(UTC+00:00)

CHARLIE (NANOAVIONICS) - Visible Passes

Search period start: 24 March 2023 00:00
Search period end: 03 April 2023 01:00
Orbit: 490 x 503 km, 97.4° (Epoch: 24 March)

Date Brightness Start Highest point End Pass type
(mag) Time Alt. Az. Time Alt. Az. Time Alt. Az.
24 Mar ? 20:02:59 22° ESE 20:04:31 31° ENE 20:07:47 10° N visible
24 Mar ? 21:37:35 29° WSW 21:38:12 30° W 21:41:30 10° NNW visible
25 Mar ? 19:41:59 14° E 19:43:57 21° ENE 19:46:46 10° N visible
25 Mar ? 21:16:34 40° SW 21:17:24 49° W 21:20:58 10° NNW visible
26 Mar ? 20:21:18 10° E 20:23:23 15° NE 20:25:29 10° NNE visible
26 Mar ? 21:55:29 43° S 21:56:35 81° WSW 22:00:15 10° NNW visible
26 Mar ? 23:30:24 10° W 23:30:55 10° W 23:31:26 10° WNW visible
27 Mar ? 21:34:20 33° SE 21:35:45 62° ENE 21:39:22 10° N visible
27 Mar ? 23:08:55 15° WSW 23:09:49 16° W 23:12:09 10° NW visible
28 Mar ? 21:13:07 23° ESE 21:14:55 38° ENE 21:18:21 10° N visible
28 Mar ? 22:47:42 22° WSW 22:48:43 24° W 22:51:47 10° NW visible
29 Mar ? 20:51:51 15° ESE 20:54:04 25° ENE 20:57:08 10° N visible
29 Mar ? 22:26:25 29° SW 22:27:37 38° W 22:31:05 10° NNW visible
30 Mar ? 20:30:44 10° E 20:33:13 18° ENE 20:35:43 10° NNE visible
30 Mar ? 22:05:04 33° S 22:06:31 64° WSW 22:10:10 10° NNW visible
31 Mar ? 21:43:39 29° SSE 21:45:24 78° ENE 21:49:04 10° NNW visible
31 Mar ? 23:18:14 11° WSW 23:19:35 13° W 23:21:23 10° WNW visible
01 Apr ? 21:22:11 21° SE 21:24:17 47° ENE 21:27:49 10° N visible
01 Apr ? 22:56:45 16° WSW 22:58:11 20° W 23:00:59 10° NW visible
02 Apr ? 21:00:39 14° ESE 21:03:09 30° ENE 21:06:25 10° N visible
02 Apr ? 22:35:13 22° SW 22:36:47 31° W 22:40:07 10° NNW visible
